Regional Weather Roundup
Issued by NWS

Home | Current Version | Previous Version | Text Only | Print | Product List | Glossary On
Versions: 1 2 3 4 5 6 7 8 9 10 11 12 13 14 15 16 17 18 19 20 21 22 23 24 25 26 27 28 29 30 31 32 33 34 35 36 37 38 39 40 41 42 43 44 45 46 47 48 49 50
000
ASUS43 KOAX 252302
RWRNE

WEATHER ROUNDUP FOR NEBRASKA
NATIONAL WEATHER SERVICE OMAHA NE
600 PM CDT MON MAY 25 2015

NOTES: SATELLITE DATA IS BEING USED TO AUGMENT CLOUD COVER ABOVE
       12000 FEET.
       "FAIR" INDICATES FEW OR NO CLOUDS BELOW 12,000 FEET WITH NO
       SIGNIFICANT WEATHER AND/OR OBSTRUCTIONS TO VISIBILITY.

  * THESE STATIONS DO NOT REPORT WEATHER SUCH AS RAIN...SNOW OR FOG.

NEZ001>004-019>022-054>056-260000-
NEBRASKA PANHANDLE

CITY           SKY/WX    TMP DP  RH WIND       PRES   REMARKS
SCOTTSBLUFF    CLOUDY    56  52  86 SW5       29.89S
ALLIANCE       CLOUDY    56  52  86 W5        29.87S
CHADRON        CLOUDY    61  52  72 N8        29.86R
SIDNEY         CLOUDY    53  49  86 N12       29.90S
$$

NEZ057>060-069>072-079>082-260000-
SOUTHWEST NEBRASKA

CITY           SKY/WX    TMP DP  RH WIND       PRES   REMARKS
NORTH PLATTE   PTSUNNY   67  50  54 W13       29.78F
IMPERIAL       MOSUNNY   62  49  62 NW15G22   29.82S
LEXINGTON      SUNNY     74  53  48 SW10      29.74F
MCCOOK         SUNNY     71  50  47 W17G25    29.77F
$$

NEZ005>010-023>029-035>040-094-260000-
NORTH CENTRAL NEBRASKA

CITY           SKY/WX    TMP DP  RH WIND       PRES   REMARKS
VALENTINE      CLOUDY    57  53  86 NW9       29.82S
AINSWORTH      PTSUNNY   60  56  86 NW10      29.80F
BROKEN BOW     SUNNY     72  54  53 W12       29.75F
ORD            SUNNY     72  53  51 W3        29.71F
$$

NEZ041-046>049-061>064-073>077-083>087-260000-
SOUTH CENTRAL NEBRASKA

CITY           SKY/WX    TMP DP  RH WIND       PRES   REMARKS
GRAND ISLAND   MOSUNNY   76  56  49 VRB5      29.73F
HASTINGS       MOSUNNY   74  54  49 VRB3      29.74F
KEARNEY *      MOSUNNY   75  50  41 W12       29.74F
$$

NEZ011>018-030>034-042>045-260000-
NORTHEAST NEBRASKA

CITY           SKY/WX    TMP DP  RH WIND       PRES   REMARKS
NORFOLK        SUNNY     76  55  48 SW9       29.72F
BLAIR          PTSUNNY   81  58  45 S14G21    29.74F
COLUMBUS *     PTSUNNY  N/A N/A N/A MISG        N/A
FREMONT        MOSUNNY   78  57  48 S9        29.74S
TEKAMAH        MOSUNNY   80  57  45 S13       29.72F
$$

NEZ050>053-065>068-078-088>093-260000-
SOUTHEAST NEBRASKA

CITY           SKY/WX    TMP DP  RH WIND       PRES   REMARKS
LINCOLN        MOSUNNY   79  61  53 SW12      29.74F
OMAHA EPPLEY   PTSUNNY   80  60  50 S16       29.73F
FALLS CITY     TSTM      69  60  73 SW17      29.80R
PLATTSMOUTH    MOSUNNY   78  57  47 S13G18    29.75F
$$

NEZ044-045-051>053-067-260000-
OMAHA AREA

CITY           SKY/WX    TMP DP  RH WIND       PRES   REMARKS
OMAHA EPPLEY   PTSUNNY   80  60  50 S16       29.73F
BLAIR          PTSUNNY   81  58  45 S14G21    29.74F
FREMONT        MOSUNNY   78  57  48 S9        29.74S
OFFUTT AFB     MOSUNNY   80  62  54 S13       29.73F
PLATTSMOUTH    MOSUNNY   78  57  47 S13G18    29.75F
$$



USA.gov is the U.S. government's official web portal to all federal, state and local government web resources and services.